Location: Jetmore Oil Field
(38.1181°N, 99.9337°W)
Time: 19:06:37
(UTC+00:00)

STARLINK-2709 - Visible Passes

Search period start: 21 October 2021 00:00
Search period end: 31 October 2021 00:00
Orbit: 546 x 548 km, 53.1° (Epoch: 21 October)

Date Brightness Start Highest point End Pass type
(mag) Time Alt. Az. Time Alt. Az. Time Alt. Az.
21 Oct 6.6 11:52:16 10° SSE 11:54:24 14° SE 11:56:32 10° E visible
22 Oct 6.3 11:45:01 10° S 11:47:58 19° SE 11:50:56 10° E visible
23 Oct 5.7 11:38:06 10° S 11:41:34 26° SE 11:45:02 10° ENE visible
24 Oct 5.1 11:31:24 10° SSW 11:35:11 36° SE 11:38:59 10° ENE visible
25 Oct 4.4 11:25:57 17° SSW 11:28:51 51° SE 11:32:51 10° ENE visible
26 Oct 3.7 11:20:58 36° SSW 11:22:32 71° SE 11:26:39 10° NE visible
27 Oct 3.4 11:15:46 68° WSW 11:16:15 84° NW 11:20:24 10° NE visible
28 Oct 3.8 11:10:24 58° N 11:10:24 58° N 11:14:07 10° NE visible
29 Oct 4.6 11:04:53 37° N 11:04:53 37° N 11:07:48 10° NE visible
30 Oct 5.2 10:59:16 25° NNE 10:59:16 25° NNE 11:01:28 10° NE visible
30 Oct 5.8 12:36:23 10° NW 12:38:08 12° NNW 12:39:54 10° NNE visible
